Regional Weather Roundup
Issued by NWS

Home | Current Version | Previous Version | Graphics & Text | Print | Product List | Glossary On
Versions: 1 2 3 4 5 6 7 8 9 10 11 12 13 14 15 16 17 18 19 20 21 22 23 24 25 26 27 28 29 30 31 32 33 34 35 36 37 38 39 40 41 42 43 44 45 46 47 48 49 50
000
ASUS44 KMEG 280410
RWRTN
TENNESSEE HOURLY STATE WEATHER ROUNDUP
NATIONAL WEATHER SERVICE MEMPHIS TN
1000 PM CST FRI FEB 27 2015

TNZ002-004-019-021-049-052-054-088>092-280500-
WEST TENNESSEE

CITY           SKY/WX    TMP DP  RH WIND       PRES   REMARKS
MEMPHIS INTL   CLOUDY    28  13  53 NE14G22   30.54F WCI  17
NWS MEMPHIS      N/A     27 N/A N/A MISG        N/A
JACKSON        MOCLDY    28  11  48 NE10      30.58R WCI  19
DYERSBURG      CLOUDY    25   5  42 NE10      30.61S WCI  15
UNION CITY     CLOUDY    21  12  68 NE9       30.59F WCI  11
PARIS          CLOUDY    21   9  58 NE10      30.60S WCI  10
LEXINGTON      PTCLDY    25  10  54 NE6       30.56S WCI  18
SAVANNAH       MOCLDY    28  10  47 NE9       30.55S WCI  20
$$

TNZ008-025-027-028-033-062-065-066-280500-
NORTH MIDDLE TENNESSEE

CITY           SKY/WX    TMP DP  RH WIND       PRES   REMARKS
NASHVILLE      CLOUDY    26   7  44 E9        30.59F WCI  17
CLARKSVILLE    CLOUDY    23  12  62 N8        30.62S WCI  14
SMYRNA         PTCLDY    25   7  46 NE8       30.61F WCI  16
COOKEVILLE     CLEAR     21  10  63 NE6       30.55F WCI  14
CROSSVILLE     PTCLDY    21   8  57 NE8       30.49F WCI  11
$$

TNZ061-075-076-078-094-096-097-280500-
SOUTH MIDDLE TENNESSEE

CITY           SKY/WX    TMP DP  RH WIND       PRES   REMARKS
FAYETTEVILLE   CLEAR     25  10  54 NE14        N/A  WCI  13
TULLAHOMA      CLEAR     25   9  50 N8        30.54R WCI  16
WINCHESTER     MOCLDY    27  12  54 N9        30.54S WCI  17
MCMINNVILLE    PTCLDY    25  10  54 N8        30.54S WCI  16
COLUMBIA         N/A     27  10  50 NE9       30.55F WCI  17
SHELBYVILLE    MOCLDY    25  10  54 NE8       30.57S WCI  16
$$

TNZ017-018-042-046-047-280500-
NORTHEAST TENNESSEE

CITY           SKY/WX    TMP DP  RH WIND       PRES   REMARKS
TRI CITIES     CLEAR     18  12  77 CALM      30.52S
ELIZABETHTON   CLEAR     16  12  86 CALM      30.51S
$$

TNZ012-013-036-069-073-074-280500-
CENTRAL EAST TENNESSEE

CITY           SKY/WX    TMP DP  RH WIND       PRES   REMARKS
KNOXVILLE      FAIR      26  11  52 N9        30.53R WCI  17
OAK RIDGE      MOCLDY    28  10  46 VRB7      30.55S WCI  21
GATLINBURG     CLEAR     21  18  86 CALM      30.53R
MORRISTOWN     CLEAR     21  12  68 CALM      30.52R
$$

TNZ083-085-099-280500-
SOUTHEAST TENNESSEE

CITY           SKY/WX    TMP DP  RH WIND       PRES   REMARKS
CHATTANOOGA    CLEAR     32  13  45 N9        30.53R WCI  24
$$

SKY/WX REPORTED AS FAIR MEANS FEW OR NO CLOUDS BELOW
12 THOUSAND FEET.




USA.gov is the U.S. government's official web portal to all federal, state and local government web resources and services.